OpenBCM V1.07b12 (Linux)

Packet Radio Mailbox

DB0FHN

[JN59NK Nuernberg]

 Login: GUEST





  
I0OJJ  > KEPS     13.01.25 09:23l 328 Lines 15576 Bytes #999 (0) @ AMSAT
BID : ORB25013.1
Read: GUEST DJ6UX DL5MBW
Subj: 2Line Orbital Elements 25013.AMSAT
Path: DB0FHN<DB0RKB<DK0WUE<DB0ERF<IZ3LSV<I0OJJ
Sent: 250113/0715z @:I0OJJ.ITA.EU [Rome] obcm1.08-6-g5b69
From: I0OJJ @ I0OJJ.ITA.EU (Gustavo)
To:   KEPS @ AMSAT
X-Info: This message was generated automatically


QST de W1STR

AMSAT Orbital Elements for Amateur Satellites in TLE Format
From Orbital Analysis Office
New England Sci-Tech STEM Education Center
Natick, MA January 13, 2025
To all radio amateurs


These element sets describe the orbits of various satellites 
in use by the amateur radio community. For details see:
www.amsat.org/keplerian-elements-formats/

A daily update of element sets is available at:
www.amsat.org/tle/daily-bulletin.txt
or without bulletin text:
www.amsat.org/tle/dailytle.txt


AO-07
1 07530U 74089B   25012.55211962 -.00000030  00000-0  10040-3 0  9996
2 07530 101.9913  15.2535 0012354  45.4382  70.9125 12.53684966295272
UO-11
1 14781U 84021B   25012.48954814  .00002037  00000-0  22506-3 0  9999
2 14781  97.7339 342.0637 0009487 103.0813 257.1463 14.88464496179605
AO-27
1 22825U 93061C   25012.72951123  .00000211  00000-0  98027-4 0  9992
2 22825  98.7605  73.3977 0008421 178.9958 181.1243 14.30705847632846
FO-29
1 24278U 96046B   25012.58484177  .00000050  00000-0  87719-4 0  9993
2 24278  98.5890 285.8466 0350145   6.0955 354.4282 13.53231388402759
NOAA-15
1 25338U 98030A   25012.78627566  .00000289  00000-0  13676-3 0  9993
2 25338  98.5507  41.3687 0011288  73.9174 286.3249 14.26854674387321
GO-32
1 25397U 98043D   25012.53382201  .00000171  00000-0  94194-4 0  9994
2 25397  98.9519 348.7188 0000306 304.9610  55.1539 14.24232790377436
ISS
1 25544U 98067A   25012.87900428  .00014253  00000-0  25765-3 0  9991
2 25544  51.6406 356.3504 0002167  91.9648 351.9019 15.49956587491071
NO-44
1 26931U 01043C   25012.54377201  .00000386  00000-0  17606-3 0  9998
2 26931  67.0505 150.5491 0006284 261.1424  98.8966 14.31579579215916
SO-50
1 27607U 02058C   25012.56056299  .00002617  00000-0  35326-3 0  9997
2 27607  64.5555 297.1472 0038335  13.1669 347.0427 14.80744550187308
CO-55
1 27844U 03031E   25012.48090107  .00000615  00000-0  28800-3 0  9994
2 27844  98.6777  22.6710 0008644 256.1113 103.9104 14.23761639117560
CO-57
1 27848U 03031J   25012.50228445  .00000507  00000-0  24395-3 0  9994
2 27848  98.6807  22.8058 0008512 275.0335  84.9871 14.23130675117351
RS-22
1 27939U 03042A   25012.83343567  .00002002  00000-0  33013-3 0  9995
2 27939  98.3091 178.9189 0012575 115.4481 350.8203 14.71572492139094
NOAA-18
1 28654U 05018A   25012.75603874  .00000297  00000-0  18127-3 0  9999
2 28654  98.8572  93.8327 0014260 185.4508 174.6512 14.13484566 12867
CO-58
1 28895U 05043F   25012.65954874  .00002717  00000-0  46183-3 0  9994
2 28895  98.2255 155.4813 0015786  57.7517 302.5216 14.69900840 25435
CO-65
1 32785U 08021C   25012.48839956  .00006464  00000-0  50335-3 0  9997
2 32785  97.7682 343.0348 0009989  14.7942 345.3572 15.01537026906838
AAUSAT2
1 32788U 08021F   25012.50263627  .00064120  00000-0  15107-2 0  9999
2 32788  97.6043   2.6624 0006211 115.4134 244.7756 15.41684863910278
CO-66
1 32791U 08021J   25012.44538211  .00013804  00000-0  79412-3 0  9993
2 32791  97.7132 349.9730 0003625 350.1466   9.9693 15.12572852908055
RS-30
1 32953U 08025A   25012.72240157  .00000031  00000-0  15300-3 0  9991
2 32953  82.5056 319.1541 0020053  10.9735 349.1779 12.43157130755160
NOAA-19
1 33591U 09005A   25012.80938366  .00000285  00000-0  17599-3 0  9997
2 33591  99.0201  76.5549 0014544  63.4481 296.8180 14.13257816821232
SRMSAT
1 37841U 11058D   25012.57137987  .00000541  00000-0  15030-3 0  9997
2 37841  19.9735 330.1536 0011658 236.3088 279.4226 14.11335661684394
ZACUBE-1
1 39417U 13066B   25012.44472382  .00005497  00000-0  51098-3 0  9995
2 39417  97.7619 330.6988 0046020 184.0471 176.0384 14.93950655602777
Delfi-N3xt
1 39428U 13066N   25012.22178223  .00006908  00000-0  76450-3 0  9997
2 39428  97.8386 291.9051 0091801 127.0819 233.8832 14.84594320597036
GOMX-1
1 39430U 13066Q   25012.69506810  .00003639  00000-0  58287-3 0  9994
2 39430  97.7023 240.3465 0134053 305.8252  53.0558 14.66474102593721
LO-74
1 39440U 13066AA  25012.42202889  .00006457  00000-0  69063-3 0  9990
2 39440  97.8350 318.3942 0063653 309.4978  50.0620 14.87586972599392
AO-73
1 39444U 13066AE  25012.44082097  .00008907  00000-0  73730-3 0  9991
2 39444  97.7468 334.5689 0043563 159.2030 201.0977 14.98368697601370
DTUSAT-2
1 40030U 14033W   25012.44574105  .00009617  00000-0  69055-3 0  9999
2 40030  98.0372 337.6758 0009294 192.1264 167.9738 15.04496326574092
EO-80
1 40032U 14033Y   25012.47413557  .00008345  00000-0  59868-3 0  9995
2 40032  98.0264 337.5599 0010623 130.9663 229.2482 15.04563642574079
XW-2C
1 40906U 15049H   25012.78121190  .00211716  00000-0  10075-2 0  9990
2 40906  97.4475  45.2180 0001878 216.2290 143.8852 15.82316031517074
LILACSAT-2
1 40908U 15049K   25012.77336685  .00012929  00000-0  39801-3 0  9992
2 40908  97.5170  29.9997 0009760 340.2344  19.8519 15.33737533515531
IO-86
1 40931U 15052B   24337.09180034  .00002217  00000-0  20975-3 0  9992
2 40931   5.9986 232.5457 0013173 302.5393  57.3463 14.78392648496340
Horyu-4
1 41340U 16012D   25012.36325079  .00019978  00000-0  71430-3 0  9999
2 41340  30.9993  41.9329 0006282 309.2163  50.7922 15.27588313490031
Lapan A3
1 41603U 16040E   25012.79720574  .00004546  00000-0  16815-3 0  9999
2 41603  97.1381  23.3661 0013371  78.3895 281.8845 15.28089755475205
CAS-2T
1 41847U 16066G   25012.44860415  .00002085  00000-0  30969-3 0  9990
2 41847  98.4387  88.1607 0347790 266.3383  89.7980 14.42695881429651
CAS-4B
1 42759U 17034B   25012.69672364  .00036304  00000-0  77183-3 0  9990
2 42759  43.0129 110.0792 0015898 336.4929  23.5201 15.44219662419608
CAS-4A
1 42761U 17034D   25012.73554440  .00036327  00000-0  76181-3 0  9994
2 42761  43.0166 107.9119 0016798 344.3750  15.6588 15.44606465419623
TechnoSat
1 42829U 17042E   25012.57425933  .00005146  00000-0  41832-3 0  9994
2 42829  97.3915 188.4869 0014504  81.6791 278.6077 14.99907890408523
AO-91
1 43017U 17073E   25012.58330665  .00013846  00000-0  76047-3 0  9998
2 43017  97.5479 247.2513 0186465 310.4470  48.0620 15.00518761386989
S-Net D
1 43186U 18014G   25012.71824153  .00006857  00000-0  43536-3 0  9997
2 43186  97.5769 277.2847 0010544  22.9647 337.2051 15.09148291380055
S-Net B
1 43187U 18014H   25012.45675868  .00006969  00000-0  44252-3 0  9996
2 43187  97.5774 276.9903 0011144  18.6958 341.4678 15.09129758380010
S-Net A
1 43188U 18014J   25012.45386292  .00006980  00000-0  44299-3 0  9991
2 43188  97.5781 277.1197 0011051  19.5342 340.6308 15.09148173380014
S-Net C
1 43189U 18014K   25012.45885374  .00007120  00000-0  45192-3 0  9997
2 43189  97.5797 277.1126 0012412  11.0837 349.0663 15.09127463378565
Ten-Koh
1 43677U 18084G   25012.42877157  .00003358  00000-0  28178-3 0  9997
2 43677  98.0818 178.8965 0014346  42.3212 317.9113 14.99015868338032
PO-101
1 43678U 18084H   25012.74215063  .00002823  00000-0  25009-3 0  9991
2 43678  98.0877 183.4510 0009846  62.6591 297.5631 14.97073097338258
QO-100
1 43700U 18090A   25012.75510057  .00000145  00000-0  00000+0 0  9991
2 43700   0.0036 116.5699 0001379 171.2849 122.2063  1.00272241 22700
MinXSS-2
1 43758U 18099A   25012.57192399  .00015966  00000-0  77187-3 0  9999
2 43758  97.5262  78.7064 0012908 319.4953  40.5319 15.18628052334455
AO-95
1 43770U 18099N   25012.12181218  .00011315  00000-0  64771-3 0  9991
2 43770  97.5168  72.1203 0012060  12.9770 347.1769 15.12741090334073
RANGE-A
1 43773U 18099R   25012.09677094  .00007397  00000-0  50201-3 0  9990
2 43773  97.4729  64.8505 0011692 347.4736  12.6199 15.06637138333844
MOVE-II
1 43780U 18099Y   25012.44168107  .00045434  00000-0  12445-2 0  9998
2 43780  97.4915  81.9207 0004093 330.8027  29.2988 15.37171714334819
SNUSat 2
1 43782U 18099AA  25012.11871669  .00009539  00000-0  57634-3 0  9994
2 43782  97.4850  69.9965 0012007 311.0060  49.0131 15.10833599334051
SnugLite
1 43784U 18099AC  25012.11582281  .00011529  00000-0  65576-3 0  9991
2 43784  97.4666  69.3333 0003014 330.3080  29.7979 15.13018136334156
ITASat 1
1 43786U 18099AE  25012.11693424  .00008329  00000-0  51966-3 0  9997
2 43786  97.4817  69.8860 0015493   3.2869 356.8459 15.09662325334035
EAGLET 1
1 43790U 18099AJ  25012.71628778  .00005559  00000-0  37654-3 0  9998
2 43790  97.5004  70.8113 0012295 341.8384  18.2402 15.06814412333783
ESEO
1 43792U 18099AL  25012.58717422  .00002132  00000-0  16882-3 0  9994
2 43792  97.4748  65.8216 0007163 302.1102  57.9427 15.01594152333602
CSIM
1 43793U 18099AM  25012.16483993  .00050212  00000-0  13872-2 0  9999
2 43793  97.5079  83.5435 0007757 298.8352  61.2113 15.36859374334618
JO-97
1 43803U 18099AX  25012.43023733  .00012408  00000-0  65983-3 0  9999
2 43803  97.4921  73.2048 0007344 308.2822  51.7749 15.15387580334296
Suomi 100
1 43804U 18099AY  25012.77266579  .00011288  00000-0  62838-3 0  9995
2 43804  97.4984  73.1698 0012652 305.0333  54.9711 15.13735786334305
ISAT
1 43879U 18111D   25012.48006264  .00019801  00000-0  88483-3 0  9996
2 43879  97.6067 284.4601 0011278   9.7316 350.4135 15.21317134331116
UWE-4
1 43880U 18111E   25012.28254413  .00016513  00000-0  79045-3 0  9998
2 43880  97.6003 283.5870 0014991  16.5524 343.6197 15.18939876331063
Sparrow
1 43881U 18111F   25012.49528413  .00020760  00000-0  90581-3 0  9993
2 43881  97.6187 286.8605 0010348  46.1813 314.0276 15.22131435331195
Prox-1
1 44339U 19036A   25012.52095806  .00014021  00000-0  20078-2 0  9994
2 44339  23.9990 310.7872 0007874 190.3905 169.6429 14.74845693296092
SONATE
1 44400U 19038Q   25012.54338616  .00048273  00000-0  73866-3 0  9996
2 44400  97.7106  24.7609 0013630  76.5426 283.7345 15.54126521306356
